Americus, GA

12:38 AM EST on January 19, 2017 (GMT -0500)
Souther

Weather History for KACJ - March, 2014

Change the Weather History Date:

Monday, March 31, 2014

  Actual Average (KABY) Record (KABY)
Temperature  
Mean Temperature 58 °F -  
Max Temperature 78 °F 73 °F 91 °F (1998)
Min Temperature 39 °F 49 °F 27 °F (1964)
Degree Days  
Heating Degree Days 6    
Growing Degree Days 8 (Base 50)    
Moisture  
Dew Point 36 °F    
Average Humidity 46    
Maximum Humidity 87    
Minimum Humidity 19    
Precipitation  
Precipitation 0.00 in - - ()
Sea Level Pressure  
Sea Level Pressure 30.14 in    
Wind  
Wind Speed 3 mph (WNW)    
Max Wind Speed 9 mph    
Max Gust Speed -    
Visibility 10 miles    
Events      
Averages and records for this station are not official NWS values.
T = Trace of Precipitation, MM = Missing Value Source: NWS Daily Summary

Daily Weather History Graph

Daily Weather History Graph

Search for Another Location

Airport or City:

Trip Planner

Search our weather history database for the weather conditions in past years. The results will help you decide how hot, cold, wet, or windy it might be!

Date:

Astronomy

Mar. 31, 2014 Rise Set
Actual Time 7:26 AM EDT 7:55 PM EDT
Civil Twilight 7:01 AM EDT 8:20 PM EDT
Nautical Twilight 6:32 AM EDT 8:49 PM EDT
Astronomical Twilight 6:03 AM EDT 9:18 PM EDT
Moon 7:52 AM EDT (3/31) 9:08 PM EDT (3/31)
Length of Visible Light 13h 18m
Length of Day
12h 29m
New Moon, 1% of the Moon is Illuminated
Mar 31
New Moon
Apr 7
First Quarter
Apr 15
Full
Apr 22
Last Quarter
Apr 29
New

Hourly Weather History & Observations

Time (EDT) Temp. Windchill Dew Point Humidity Pressure Visibility Wind Dir Wind Speed Gust Speed Precip Events Conditions
12:10 AM 51.8 °F - 35.6 °F 54% 30.15 in 10.0 mi WNW 3.5 mph - N/A   Clear
12:30 AM 50.0 °F - 35.6 °F 58% 30.15 in 10.0 mi WNW 4.6 mph - N/A   Clear
12:50 AM 51.8 °F - 35.6 °F 54% 30.15 in 10.0 mi WNW 4.6 mph - N/A   Clear
1:10 AM 46.4 °F - 39.2 °F 76% 30.15 in 10.0 mi Calm Calm - N/A   Clear
1:30 AM 51.8 °F - 35.6 °F 54% 30.15 in 10.0 mi NNW 5.8 mph - N/A   Clear
1:50 AM 51.8 °F - 35.6 °F 54% 30.15 in 10.0 mi NW 4.6 mph - N/A   Clear
2:10 AM 51.8 °F - 35.6 °F 54% 30.14 in 10.0 mi NNW 5.8 mph - N/A   Clear
2:30 AM 51.8 °F - 35.6 °F 54% 30.13 in 10.0 mi North 4.6 mph - N/A   Clear
2:50 AM 51.8 °F - 35.6 °F 54% 30.13 in 10.0 mi NNW 4.6 mph - N/A   Clear
3:10 AM 51.8 °F - 33.8 °F 50% 30.13 in 10.0 mi North 4.6 mph - N/A   Clear
3:30 AM 51.8 °F - 33.8 °F 50% 30.12 in 10.0 mi NNW 3.5 mph - N/A   Clear
3:50 AM 51.8 °F - 33.8 °F 50% 30.12 in 10.0 mi NNW 3.5 mph - N/A   Clear
4:10 AM 50.0 °F - 35.6 °F 58% 30.11 in 10.0 mi NNW 4.6 mph - N/A   Clear
4:30 AM 50.0 °F - 35.6 °F 58% 30.11 in 10.0 mi North 4.6 mph - N/A   Clear
4:50 AM 48.2 °F - 33.8 °F 58% 30.11 in 10.0 mi North 3.5 mph - N/A   Clear
5:10 AM 48.2 °F - 33.8 °F 58% 30.11 in 10.0 mi Calm Calm - N/A   Clear
5:30 AM 46.4 °F 45.2 °F 33.8 °F 62% 30.11 in 10.0 mi North 3.5 mph - N/A   Clear
5:50 AM 42.8 °F - 35.6 °F 76% 30.11 in 10.0 mi Calm Calm - N/A   Clear
6:10 AM 42.8 °F 41.1 °F 33.8 °F 70% 30.12 in 10.0 mi North 3.5 mph - N/A   Clear
6:30 AM 42.8 °F - 35.6 °F 76% 30.13 in 10.0 mi Calm Calm - N/A   Clear
6:50 AM 42.8 °F - 35.6 °F 76% 30.14 in 10.0 mi Calm Calm - N/A   Clear
7:10 AM 41.0 °F - 35.6 °F 81% 30.15 in 10.0 mi Calm Calm - N/A   Clear
7:30 AM 39.2 °F - 35.6 °F 87% 30.16 in 10.0 mi Calm Calm - N/A   Clear
7:50 AM 41.0 °F - 35.6 °F 81% 30.16 in 7.0 mi Calm Calm - N/A   Clear
8:10 AM 42.8 °F - 37.4 °F 81% 30.17 in 7.0 mi Calm Calm - N/A   Clear
8:30 AM 44.6 °F - 39.2 °F 81% 30.18 in 10.0 mi Calm Calm - N/A   Clear
8:50 AM 48.2 °F - 37.4 °F 66% 30.19 in 10.0 mi Calm Calm - N/A   Clear
9:10 AM 51.8 °F - 37.4 °F 58% 30.19 in 10.0 mi North 3.5 mph - N/A   Clear
9:30 AM 53.6 °F - 35.6 °F 51% 30.19 in 10.0 mi NNE 4.6 mph - N/A   Clear
9:50 AM 55.4 °F - 35.6 °F 47% 30.20 in 10.0 mi NE 9.2 mph - N/A   Clear
10:10 AM 57.2 °F - 33.8 °F 41% 30.20 in 10.0 mi NE 5.8 mph - N/A   Clear
10:30 AM 59.0 °F - 33.8 °F 39% 30.20 in 10.0 mi NNE 4.6 mph - N/A   Clear
10:50 AM 60.8 °F - 33.8 °F 36% 30.20 in 10.0 mi ENE 3.5 mph - N/A   Clear
11:20 AM 62.6 °F - 32.0 °F 32% 30.20 in 10.0 mi East 3.5 mph - N/A   Clear
11:30 AM 62.6 °F - 32.0 °F 32% 30.20 in 10.0 mi Calm Calm - N/A   Clear
11:50 AM 64.4 °F - 33.8 °F 32% 30.20 in 10.0 mi Calm Calm - N/A   Clear
12:10 PM 66.2 °F - 33.8 °F 30% 30.20 in 10.0 mi WSW 3.5 mph - N/A   Clear
12:30 PM 66.2 °F - 33.8 °F 30% 30.20 in 10.0 mi Calm Calm - N/A   Clear
12:50 PM 68.0 °F - 32.0 °F 26% 30.19 in 10.0 mi Calm Calm - N/A   Clear
1:10 PM 68.0 °F - 33.8 °F 28% 30.18 in 10.0 mi Calm Calm - N/A   Clear
1:30 PM 69.8 °F - 32.0 °F 25% 30.18 in 10.0 mi Calm Calm - N/A   Clear
1:50 PM 71.6 °F - 33.8 °F 25% 30.16 in 10.0 mi Calm Calm - N/A   Clear
2:10 PM 71.6 °F - 32.0 °F 23% 30.16 in 10.0 mi Calm Calm - N/A   Clear
2:30 PM 73.4 °F - 32.0 °F 22% 30.15 in 10.0 mi Calm Calm - N/A   Clear
2:50 PM 75.2 °F - 32.0 °F 21% 30.14 in 10.0 mi SW 4.6 mph - N/A   Clear
3:10 PM 75.2 °F - 33.8 °F 22% 30.13 in 10.0 mi SSW 6.9 mph - N/A   Clear
3:30 PM 75.2 °F - 32.0 °F 21% 30.13 in 10.0 mi SW 4.6 mph - N/A   Clear
3:50 PM 77.0 °F - 33.8 °F 21% 30.12 in 10.0 mi South 6.9 mph - N/A   Clear
4:10 PM 77.0 °F - 33.8 °F 21% 30.11 in 10.0 mi Calm Calm - N/A   Clear
4:30 PM 77.0 °F - 33.8 °F 21% 30.11 in 10.0 mi WSW 6.9 mph - N/A   Clear
4:50 PM 77.0 °F - 32.0 °F 19% 30.10 in 10.0 mi SSW 3.5 mph - N/A   Clear
5:10 PM 78.8 °F - 33.8 °F 20% 30.10 in 10.0 mi SW 5.8 mph - N/A   Clear
5:30 PM 77.0 °F - 32.0 °F 19% 30.10 in 10.0 mi SW 5.8 mph - N/A   Clear
5:50 PM 77.0 °F - 33.8 °F 21% 30.09 in 10.0 mi South 4.6 mph - N/A   Clear
6:10 PM 77.0 °F - 32.0 °F 19% 30.09 in 10.0 mi SW 3.5 mph - N/A   Clear
6:30 PM 77.0 °F - 32.0 °F 19% 30.09 in 10.0 mi SW 4.6 mph - N/A   Clear
6:50 PM 73.4 °F - 35.6 °F 25% 30.09 in 10.0 mi South 4.6 mph - N/A   Clear
7:10 PM 73.4 °F - 35.6 °F 25% 30.10 in 10.0 mi SSW 3.5 mph - N/A   Clear
7:30 PM 71.6 °F - 35.6 °F 27% 30.10 in 10.0 mi SSW 3.5 mph - N/A   Clear
7:50 PM 66.2 °F - 41.0 °F 40% 30.10 in 10.0 mi Calm Calm - N/A   Clear
8:10 PM 64.4 °F - 39.2 °F 40% 30.10 in 10.0 mi Calm Calm - N/A   Clear
8:30 PM 60.8 °F - 42.8 °F 52% 30.11 in 10.0 mi Calm Calm - N/A   Clear
8:50 PM 60.8 °F - 42.8 °F 52% 30.11 in 10.0 mi Calm Calm - N/A   Clear
9:10 PM 59.0 °F - 46.4 °F 63% 30.12 in 10.0 mi Calm Calm - N/A   Clear
9:30 PM 59.0 °F - 39.2 °F 48% 30.12 in 10.0 mi Calm Calm - N/A   Clear
9:50 PM 57.2 °F - 41.0 °F 55% 30.13 in 10.0 mi Calm Calm - N/A   Clear
10:10 PM 59.0 °F - 39.2 °F 48% 30.13 in 10.0 mi Calm Calm - N/A   Clear
10:30 PM 55.4 °F - 41.0 °F 58% 30.13 in 10.0 mi SW 3.5 mph - N/A   Clear
10:50 PM 57.2 °F - 42.8 °F 59% 30.13 in 10.0 mi SW 3.5 mph - N/A   Clear
11:10 PM 55.4 °F - 42.8 °F 63% 30.14 in 10.0 mi Calm Calm - N/A   Clear
11:30 PM 55.4 °F - 42.8 °F 63% 30.14 in 10.0 mi Calm Calm - N/A   Clear
11:50 PM 53.6 °F - 42.8 °F 67% 30.14 in 10.0 mi Calm Calm - N/A   Clear